| time (UTC) | temp F | wind direction | speed knots | gust knots | rain 1hr in | rain 24hr in | rain mn in | humidity % | barometer mb |
| 20260906124557 | 74 | 327 | 0.9 | 1.7 | 0.00 | 0.00 | 0.00 | 89 | 1014.2 |
| 20260906123058 | 73 | 0 | 0.0 | 0.0 | 0.00 | 0.00 | 0.00 | 90 | 1014.2 |
| 20260906121607 | 72 | 0 | 0.0 | 0.0 | 0.00 | 0.00 | 0.00 | 91 | 1014.1 |
| 20260906114555 | 72 | 0 | 0.0 | 0.0 | 0.00 | 0.00 | 0.00 | 91 | 1014.1 |
| 20260906113105 | 72 | 0 | 0.0 | 0.0 | 0.00 | 0.00 | 0.00 | 91 | 1014.0 |
| 20260906111551 | 72 | 0 | 0.0 | 0.0 | 0.00 | 0.00 | 0.00 | 91 | 1013.8 |
| 20260906110104 | 71 | 0 | 0.0 | 1.7 | 0.00 | 0.00 | 0.00 | 91 | 1013.6 |
| 20260906104557 | 72 | 360 | 0.9 | 1.7 | 0.00 | 0.00 | 0.00 | 91 | 1013.5 |
| 20260906103103 | 72 | 0 | 0.0 | 0.0 | 0.00 | 0.00 | 0.00 | 90 | 1013.1 |
| 20260906101601 | 72 | 360 | 0.9 | 1.7 | 0.00 | 0.00 | 0.00 | 91 | 1013.3 |
| 20260906100105 | 72 | 360 | 0.0 | 1.7 | 0.00 | 0.00 | 0.00 | 91 | 1013.3 |
| 20260906094554 | 72 | 0 | 0.0 | 0.0 | 0.00 | 0.00 | 0.00 | 90 | 1013.2 |
| 20260906093105 | 72 | 0 | 0.0 | 0.0 | 0.00 | 0.00 | 0.00 | 90 | 1013.1 |
| 20260906091601 | 71 | 0 | 0.0 | 0.0 | 0.00 | 0.00 | 0.00 | 91 | 1013.1 |
| 20260906090114 | 71 | 0 | 0.0 | 0.0 | 0.00 | 0.00 | 0.00 | 91 | 1013.1 |
| 20260906084612 | 71 | 0 | 0.0 | 0.0 | 0.00 | 0.00 | 0.00 | 91 | 1013.1 |
| 20260906083109 | 71 | 0 | 0.0 | 0.0 | 0.00 | 0.00 | 0.00 | 90 | 1013.1 |
| 20260906081600 | 72 | 0 | 0.0 | 0.0 | 0.00 | 0.00 | 0.00 | 90 | 1012.9 |
| 20260906080122 | 72 | 0 | 0.0 | 0.0 | 0.00 | 0.00 | 0.00 | 89 | 1012.9 |
| 20260906074607 | 72 | 0 | 0.0 | 0.0 | 0.00 | 0.00 | 0.00 | 89 | 1012.6 |
| 20260906073105 | 72 | 0 | 0.0 | 0.0 | 0.00 | 0.00 | 0.00 | 88 | 1012.7 |
| 20260906071600 | 72 | 0 | 0.0 | 0.0 | 0.00 | 0.00 | 0.00 | 89 | 1013.0 |
| 20260906070103 | 73 | 0 | 0.0 | 0.9 | 0.00 | 0.00 | 0.00 | 87 | 1013.1 |
| 20260906064551 | 73 | 0 | 0.0 | 0.9 | 0.00 | 0.00 | 0.00 | 87 | 1013.0 |
| 20260906063102 | 73 | 0 | 0.0 | 0.9 | 0.00 | 0.00 | 0.00 | 86 | 1013.0 |
| 20260906061605 | 74 | 0 | 0.0 | 1.7 | 0.00 | 0.00 | 0.00 | 86 | 1013.1 |
| 20260906054552 | 75 | 360 | 0.0 | 1.7 | 0.00 | 0.00 | 0.00 | 83 | 1013.5 |
| 20260906053101 | 75 | 0 | 0.9 | 1.7 | 0.00 | 0.00 | 0.00 | 82 | 1013.6 |
| 20260906051606 | 75 | 0 | 0.0 | 2.6 | 0.00 | 0.00 | 0.00 | 81 | 1013.7 |
| 20260906050109 | 75 | 360 | 0.9 | 2.6 | 0.00 | 0.00 | 0.00 | 80 | 1014.0 |
| 20260906044602 | 76 | 0 | 0.0 | 1.7 | 0.00 | 0.00 | 0.00 | 78 | 1014.1 |
| 20260906043104 | 76 | 0 | 0.0 | 3.5 | 0.00 | 0.00 | 0.00 | 77 | 1013.9 |
| 20260906041603 | 76 | 182 | 0.0 | 2.6 | 0.00 | 0.00 | 0.00 | 76 | 1013.6 |
| 20260906040058 | 77 | 0 | 0.0 | 1.7 | 0.00 | 0.00 | 0.00 | 75 | 1013.7 |
| 20260906034608 | 78 | 50 | 0.0 | 2.6 | 0.00 | 0.00 | 0.00 | 73 | 1013.4 |
| 20260906033102 | 77 | 162 | 1.7 | 5.2 | 0.00 | 0.00 | 0.00 | 75 | 1013.3 |
| 20260906031600 | 77 | 323 | 1.7 | 3.5 | 0.00 | 0.00 | 0.00 | 75 | 1013.3 |
| 20260906030104 | 78 | 334 | 0.0 | 2.6 | 0.00 | 0.00 | 0.00 | 73 | 1013.5 |
| 20260906024604 | 79 | 323 | 1.7 | 4.3 | 0.00 | 0.00 | 0.00 | 71 | 1013.7 |
| 20260906023059 | 79 | 280 | 0.9 | 4.3 | 0.00 | 0.00 | 0.00 | 71 | 1013.3 |
| 20260906021603 | 79 | 244 | 0.0 | 3.5 | 0.00 | 0.00 | 0.00 | 72 | 1013.1 |
| 20260906020106 | 82 | 32 | 3.5 | 12.2 | 0.00 | 0.00 | 0.00 | 65 | 1013.3 |
| 20260906014601 | 81 | 352 | 4.3 | 11.3 | 0.00 | 0.00 | 0.00 | 63 | 1013.6 |
| 20260906013107 | 80 | 92 | 2.6 | 12.2 | 0.00 | 0.00 | 0.00 | 68 | 1014.0 |
| 20260906011603 | 81 | 82 | 5.2 | 12.2 | 0.00 | 0.00 | 0.00 | 69 | 1014.5 |
| 20260906010100 | 82 | 318 | 1.7 | 4.3 | 0.00 | 0.00 | 0.00 | 81 | 1014.2 |
| 20260906004559 | 81 | 324 | 3.5 | 6.1 | 0.00 | 0.00 | 0.00 | 81 | 1013.6 |
| 20260906003101 | 81 | 0 | 0.0 | 0.9 | 0.00 | 0.00 | 0.00 | 81 | 1013.2 |
| 20260906001559 | 81 | 0 | 0.0 | 0.0 | 0.00 | 0.00 | 0.00 | 82 | 1013.1 |
| 20260906000108 | 81 | 329 | 0.0 | 2.6 | 0.00 | 0.00 | 0.00 | 82 | 1012.8 |
| 20260905234618 | 81 | 0 | 0.0 | 3.5 | 0.00 | 0.00 | 0.00 | 84 | 1012.2 |
| 20260905233100 | 82 | 0 | 0.0 | 1.7 | 0.00 | 0.00 | 0.00 | 83 | 1012.3 |
| 20260905231607 | 82 | 0 | 0.0 | 1.7 | 0.00 | 0.00 | 0.00 | 82 | 1012.8 |
| 20260905230105 | 82 | 0 | 0.0 | 2.6 | 0.00 | 0.00 | 0.00 | 80 | 1012.7 |
| 20260905224552 | 82 | 180 | 0.0 | 2.6 | 0.00 | 0.00 | 0.00 | 80 | 1012.6 |
| 20260905223106 | 82 | 153 | 0.9 | 2.6 | 0.00 | 0.00 | 0.00 | 78 | 1012.7 |
| 20260905221600 | 83 | 0 | 0.0 | 1.7 | 0.00 | 0.00 | 0.00 | 78 | 1012.6 |
| 20260905220113 | 82 | 259 | 0.0 | 1.7 | 0.00 | 0.00 | 0.00 | 77 | 1012.7 |
| 20260905214555 | 82 | 174 | 0.9 | 3.5 | 0.00 | 0.00 | 0.00 | 77 | 1012.7 |
| 20260905213100 | 82 | 213 | 3.5 | 6.1 | 0.00 | 0.00 | 0.00 | 76 | 1012.6 |
| 20260905211558 | 82 | 179 | 0.9 | 8.7 | 0.00 | 0.00 | 0.00 | 75 | 1012.9 |
| 20260905210105 | 83 | 246 | 2.6 | 7.8 | 0.00 | 0.00 | 0.00 | 74 | 1012.9 |
| 20260905204600 | 81 | 219 | 0.9 | 4.3 | 0.00 | 0.00 | 0.00 | 77 | 1012.8 |
| 20260905203108 | 82 | 329 | 1.7 | 5.2 | 0.00 | 0.00 | 0.00 | 79 | 1012.8 |
| 20260905201602 | 82 | 333 | 0.0 | 3.5 | 0.00 | 0.00 | 0.00 | 79 | 1012.8 |
| 20260905200107 | 82 | 227 | 0.9 | 8.7 | 0.00 | 0.00 | 0.00 | 79 | 1013.1 |
| 20260905194559 | 81 | 186 | 2.6 | 7.8 | 0.00 | 0.00 | 0.00 | 80 | 1013.4 |
| 20260905193059 | 80 | 160 | 0.9 | 9.6 | 0.00 | 0.00 | 0.00 | 82 | 1014.1 |
| 20260905191601 | 81 | 189 | 2.6 | 7.0 | 0.00 | 0.00 | 0.00 | 81 | 1014.6 |
| 20260905190057 | 82 | 199 | 2.6 | 7.8 | 0.00 | 0.00 | 0.00 | 79 | 1014.9 |
| 20260905184601 | 83 | 198 | 2.6 | 7.8 | 0.00 | 0.00 | 0.00 | 78 | 1014.4 |
| 20260905183103 | 83 | 155 | 1.7 | 5.2 | 0.00 | 0.00 | 0.00 | 77 | 1014.0 |
| 20260905181600 | 83 | 169 | 0.9 | 4.3 | 0.00 | 0.00 | 0.00 | 79 | 1014.3 |
| 20260905180059 | 83 | 200 | 1.7 | 7.8 | 0.00 | 0.00 | 0.00 | 79 | 1014.5 |
| 20260905174553 | 82 | 146 | 1.7 | 7.0 | 0.00 | 0.00 | 0.00 | 85 | 1014.6 |
| 20260905173100 | 84 | 237 | 1.7 | 5.2 | 0.00 | 0.00 | 0.00 | 80 | 1014.8 |
| 20260905171634 | 87 | 167 | 0.9 | 3.5 | 0.00 | 0.00 | 0.00 | 73 | 1014.9 |
| 20260905170105 | 89 | 0 | 0.0 | 1.7 | 0.00 | 0.00 | 0.00 | 68 | 1015.1 |
| 20260905164602 | 90 | 0 | 0.0 | 0.9 | 0.00 | 0.00 | 0.00 | 68 | 1015.3 |
| 20260905163102 | 89 | 286 | 0.0 | 1.7 | 0.00 | 0.00 | 0.00 | 66 | 1015.4 |
| 20260905161559 | 90 | 188 | 0.0 | 4.3 | 0.00 | 0.00 | 0.00 | 63 | 1015.4 |
| 20260905160107 | 92 | 40 | 0.9 | 5.2 | 0.00 | 0.00 | 0.00 | 59 | 1015.5 |
| 20260905154615 | 91 | 0 | 0.9 | 3.5 | 0.00 | 0.00 | 0.00 | 63 | 1015.5 |
| 20260905153104 | 90 | 323 | 1.7 | 6.1 | 0.00 | 0.00 | 0.00 | 66 | 1015.7 |
| 20260905151552 | 89 | 324 | 1.7 | 6.1 | 0.00 | 0.00 | 0.00 | 67 | 1015.8 |
| 20260905150108 | 89 | 312 | 1.7 | 5.2 | 0.00 | 0.00 | 0.00 | 67 | 1015.7 |
| 20260905144606 | 87 | 323 | 1.7 | 5.2 | 0.00 | 0.00 | 0.00 | 71 | 1015.8 |
| 20260905143106 | 88 | 291 | 0.0 | 7.0 | 0.00 | 0.00 | 0.00 | 72 | 1015.9 |
| 20260905141558 | 86 | 333 | 2.6 | 7.0 | 0.00 | 0.00 | 0.00 | 75 | 1016.1 |
| 20260905140103 | 85 | 323 | 0.9 | 4.3 | 0.00 | 0.00 | 0.00 | 78 | 1016.0 |
| 20260905134603 | 83 | 314 | 2.6 | 7.0 | 0.00 | 0.00 | 0.00 | 80 | 1016.1 |
| 20260905133103 | 82 | 322 | 2.6 | 6.1 | 0.00 | 0.00 | 0.00 | 82 | 1016.1 |
| 20260905131602 | 81 | 320 | 2.6 | 7.0 | 0.00 | 0.00 | 0.00 | 84 | 1016.1 |
| 20260905130059 | 80 | 319 | 1.7 | 5.2 | 0.00 | 0.00 | 0.00 | 87 | 1016.2 |